Time,TemperatureF,DewpointF,PressureIn,WindDirection,WindDirectionDegrees,WindSpeedMPH,WindSpeedGustMPH,Humidity,HourlyPrecipIn,Conditions,Clouds,dailyrainin,SoftwareType,DateUTC
2013-04-22 00:03:00,43.0,-99.9,30.30,SE,138,8.0,12.0,-999,-99.99,,,-99.99,,2013-04-22 05:03:00,
2013-04-22 00:12:00,42.0,-99.9,30.30,SE,145,5.0,17.0,-999,-99.99,,,-99.99,,2013-04-22 05:12:00,
2013-04-22 00:23:00,42.0,-99.9,30.30,SE,145,5.0,17.0,-999,-99.99,,,-99.99,,2013-04-22 05:23:00,
2013-04-22 00:33:00,42.0,-99.9,30.29,SSE,160,7.0,15.0,-999,-99.99,,,-99.99,,2013-04-22 05:33:00,
2013-04-22 00:42:00,42.0,-99.9,30.29,SSE,160,7.0,15.0,-999,-99.99,,,-99.99,,2013-04-22 05:42:00,
2013-04-22 00:52:00,42.0,-99.9,30.30,SSE,150,5.0,12.0,-999,-99.99,,,-99.99,,2013-04-22 05:52:00,
2013-04-22 01:02:00,41.0,-99.9,30.29,SSE,156,5.0,13.0,-999,-99.99,,,-99.99,,2013-04-22 06:02:00,
2013-04-22 01:12:00,41.0,-99.9,30.29,SSE,156,5.0,13.0,-999,-99.99,,,-99.99,,2013-04-22 06:12:00,
2013-04-22 01:22:00,41.0,-99.9,30.29,SSE,149,4.0,15.0,-999,-99.99,,,-99.99,,2013-04-22 06:22:00,
2013-04-22 01:32:00,41.0,-99.9,30.29,SE,142,5.0,11.0,-999,-99.99,,,-99.99,,2013-04-22 06:32:00,
2013-04-22 01:42:00,41.0,-99.9,30.29,SE,142,5.0,11.0,-999,-99.99,,,-99.99,,2013-04-22 06:42:00,
2013-04-22 01:52:00,41.0,-99.9,30.29,SE,138,7.0,11.0,-999,-99.99,,,-99.99,,2013-04-22 06:52:00,
2013-04-22 02:01:00,40.0,-99.9,30.28,ESE,122,5.0,17.0,-999,-99.99,,,-99.99,,2013-04-22 07:01:00,
2013-04-22 02:12:00,40.0,-99.9,30.28,ESE,122,5.0,17.0,-999,-99.99,,,-99.99,,2013-04-22 07:12:00,
2013-04-22 02:22:00,40.0,-99.9,30.27,SE,132,3.0,9.0,-999,-99.99,,,-99.99,,2013-04-22 07:22:00,
2013-04-22 02:32:00,40.0,-99.9,30.27,SE,144,1.0,8.0,-999,-99.99,,,-99.99,,2013-04-22 07:32:00,
2013-04-22 02:42:00,40.0,-99.9,30.27,SE,144,1.0,8.0,-999,-99.99,,,-99.99,,2013-04-22 07:42:00,
2013-04-22 02:52:00,39.0,-99.9,30.27,South,172,4.0,9.0,-999,-99.99,,,-99.99,,2013-04-22 07:52:00,
2013-04-22 03:02:00,39.0,-99.9,30.27,SE,143,3.0,7.0,-999,-99.99,,,-99.99,,2013-04-22 08:02:00,
2013-04-22 03:11:00,39.0,-99.9,30.26,SE,126,3.0,9.0,-999,-99.99,,,-99.99,,2013-04-22 08:11:00,
2013-04-22 03:22:00,39.0,-99.9,30.26,SE,126,3.0,9.0,-999,-99.99,,,-99.99,,2013-04-22 08:22:00,
2013-04-22 03:32:00,39.0,-99.9,30.26,SSE,150,4.0,11.0,-999,-99.99,,,-99.99,,2013-04-22 08:32:00,
2013-04-22 03:42:00,39.0,-99.9,30.26,SSE,150,4.0,11.0,-999,-99.99,,,-99.99,,2013-04-22 08:42:00,
2013-04-22 03:53:00,38.0,-99.9,30.25,SSE,149,7.0,13.0,-999,-99.99,,,-99.99,,2013-04-22 08:53:00,
2013-04-22 04:01:00,38.0,-99.9,30.25,SSE,159,3.0,11.0,-999,-99.99,,,-99.99,,2013-04-22 09:01:00,
2013-04-22 04:11:00,38.0,-99.9,30.26,SSE,155,4.0,11.0,-999,-99.99,,,-99.99,,2013-04-22 09:11:00,
2013-04-22 04:22:00,38.0,-99.9,30.26,SSE,155,4.0,11.0,-999,-99.99,,,-99.99,,2013-04-22 09:22:00,
2013-04-22 04:33:00,38.0,-99.9,30.25,SSW,200,5.0,10.0,-999,-99.99,,,-99.99,,2013-04-22 09:33:00,
2013-04-22 04:42:00,38.0,-99.9,30.25,SSW,200,5.0,10.0,-999,-99.99,,,-99.99,,2013-04-22 09:42:00,
2013-04-22 04:53:00,38.0,-99.9,30.26,SSE,152,3.0,9.0,-999,-99.99,,,-99.99,,2013-04-22 09:53:00,
2013-04-22 05:03:00,37.0,-99.9,30.26,SSE,163,1.0,8.0,-999,-99.99,,,-99.99,,2013-04-22 10:03:00,
2013-04-22 05:12:00,37.0,-99.9,30.26,SSE,163,1.0,8.0,-999,-99.99,,,-99.99,,2013-04-22 10:12:00,
2013-04-22 05:23:00,37.0,-99.9,30.26,SE,126,2.0,8.0,-999,-99.99,,,-99.99,,2013-04-22 10:23:00,
2013-04-22 05:33:00,37.0,-99.9,30.26,SE,146,2.0,6.0,-999,-99.99,,,-99.99,,2013-04-22 10:33:00,
2013-04-22 05:42:00,37.0,-99.9,30.26,SE,146,2.0,6.0,-999,-99.99,,,-99.99,,2013-04-22 10:42:00,
2013-04-22 05:53:00,37.0,-99.9,30.26,SSE,156,3.0,10.0,-999,-99.99,,,-99.99,,2013-04-22 10:53:00,
2013-04-22 06:02:00,37.0,-99.9,30.26,SSE,162,3.0,7.0,-999,-99.99,,,-99.99,,2013-04-22 11:02:00,
2013-04-22 06:12:00,37.0,-99.9,30.26,SSE,163,5.0,10.0,-999,-99.99,,,-99.99,,2013-04-22 11:12:00,
2013-04-22 06:22:00,37.0,-99.9,30.26,SSE,163,5.0,10.0,-999,-99.99,,,-99.99,,2013-04-22 11:22:00,
2013-04-22 06:33:00,37.0,-99.9,30.26,SE,124,3.0,7.0,-999,-99.99,,,-99.99,,2013-04-22 11:33:00,
2013-04-22 06:43:00,37.0,-99.9,30.26,SE,124,3.0,7.0,-999,-99.99,,,-99.99,,2013-04-22 11:43:00,
2013-04-22 06:53:00,37.0,-99.9,30.26,SSE,154,3.0,6.0,-999,-99.99,,,-99.99,,2013-04-22 11:53:00,
2013-04-22 07:02:00,38.0,-99.9,30.26,SSE,151,4.0,7.0,-999,-99.99,,,-99.99,,2013-04-22 12:02:00,
2013-04-22 07:12:00,39.0,-99.9,30.26,South,176,4.0,8.0,-999,-99.99,,,-99.99,,2013-04-22 12:12:00,
2013-04-22 07:22:00,39.0,-99.9,30.26,South,176,4.0,8.0,-999,-99.99,,,-99.99,,2013-04-22 12:22:00,
2013-04-22 07:32:00,40.0,-99.9,30.26,SSE,155,5.0,9.0,-999,-99.99,,,-99.99,,2013-04-22 12:32:00,
2013-04-22 07:42:00,40.0,-99.9,30.26,SSE,155,5.0,9.0,-999,-99.99,,,-99.99,,2013-04-22 12:42:00,
2013-04-22 07:52:00,42.0,-99.9,30.25,SSE,157,6.0,12.0,-999,-99.99,,,-99.99,,2013-04-22 12:52:00,
2013-04-22 08:01:00,43.0,-99.9,30.25,SSE,166,6.0,10.0,-999,-99.99,,,-99.99,,2013-04-22 13:01:00,
2013-04-22 08:12:00,43.0,-99.9,30.25,SSE,166,6.0,10.0,-999,-99.99,,,-99.99,,2013-04-22 13:12:00,
2013-04-22 08:22:00,45.0,-99.9,30.25,SSE,157,4.0,12.0,-999,-99.99,,,-99.99,,2013-04-22 13:22:00,
2013-04-22 08:32:00,46.0,-99.9,30.25,SE,138,3.0,14.0,-999,-99.99,,,-99.99,,2013-04-22 13:32:00,
2013-04-22 08:42:00,46.0,-99.9,30.25,SE,138,3.0,14.0,-999,-99.99,,,-99.99,,2013-04-22 13:42:00,
2013-04-22 08:53:00,48.0,-99.9,30.24,SE,136,6.0,10.0,-999,-99.99,,,-99.99,,2013-04-22 13:53:00,
2013-04-22 09:02:00,47.0,-99.9,30.25,SSE,156,6.0,10.0,-999,-99.99,,,-99.99,,2013-04-22 14:02:00,
2013-04-22 09:12:00,49.0,-99.9,30.25,SSE,156,5.0,12.0,-999,-99.99,,,-99.99,,2013-04-22 14:12:00,
2013-04-22 09:22:00,49.0,-99.9,30.25,SSE,156,5.0,12.0,-999,-99.99,,,-99.99,,2013-04-22 14:22:00,
2013-04-22 09:33:00,51.0,-99.9,30.24,SSE,162,4.0,11.0,-999,-99.99,,,-99.99,,2013-04-22 14:33:00,
2013-04-22 09:42:00,51.0,-99.9,30.24,SSE,162,4.0,11.0,-999,-99.99,,,-99.99,,2013-04-22 14:42:00,
2013-04-22 09:52:00,53.0,-99.9,30.24,SSE,163,3.0,8.0,-999,-99.99,,,-99.99,,2013-04-22 14:52:00,
2013-04-22 10:02:00,54.0,-99.9,30.24,SSE,165,4.0,10.0,-999,-99.99,,,-99.99,,2013-04-22 15:02:00,
2013-04-22 10:12:00,54.0,-99.9,30.24,SSE,165,4.0,10.0,-999,-99.99,,,-99.99,,2013-04-22 15:12:00,
2013-04-22 10:22:00,55.0,-99.9,30.23,SE,141,4.0,9.0,-999,-99.99,,,-99.99,,2013-04-22 15:22:00,
2013-04-22 10:33:00,55.0,-99.9,30.23,South,183,3.0,10.0,-999,-99.99,,,-99.99,,2013-04-22 15:33:00,
2013-04-22 10:43:00,55.0,-99.9,30.23,South,183,3.0,10.0,-999,-99.99,,,-99.99,,2013-04-22 15:43:00,
2013-04-22 10:53:00,56.0,-99.9,30.23,SSW,200,3.0,7.0,-999,-99.99,,,-99.99,,2013-04-22 15:53:00,
2013-04-22 11:03:00,58.0,-99.9,30.24,SSE,149,5.0,9.0,-999,-99.99,,,-99.99,,2013-04-22 16:03:00,
2013-04-22 11:13:00,58.0,-99.9,30.24,SSE,149,5.0,9.0,-999,-99.99,,,-99.99,,2013-04-22 16:13:00,
2013-04-22 11:23:00,59.0,-99.9,30.23,SSE,151,4.0,9.0,-999,-99.99,,,-99.99,,2013-04-22 16:23:00,
2013-04-22 11:33:00,60.0,-99.9,30.22,ESE,120,2.0,8.0,-999,-99.99,,,-99.99,,2013-04-22 16:33:00,
2013-04-22 11:42:00,60.0,-99.9,30.22,ESE,120,2.0,8.0,-999,-99.99,,,-99.99,,2013-04-22 16:42:00,
2013-04-22 11:52:00,61.0,-99.9,30.21,East,87,3.0,7.0,-999,-99.99,,,-99.99,,2013-04-22 16:52:00,
2013-04-22 12:02:00,60.0,-99.9,30.21,SSE,161,4.0,8.0,-999,-99.99,,,-99.99,,2013-04-22 17:02:00,
2013-04-22 12:12:00,60.0,-99.9,30.21,SSE,161,4.0,8.0,-999,-99.99,,,-99.99,,2013-04-22 17:12:00,
2013-04-22 12:22:00,61.0,-99.9,30.20,SSE,161,6.0,10.0,-999,-99.99,,,-99.99,,2013-04-22 17:22:00,
2013-04-22 12:32:00,62.0,-99.9,30.20,WSW,245,3.0,8.0,-999,-99.99,,,-99.99,,2013-04-22 17:32:00,
2013-04-22 12:43:00,62.0,-99.9,30.20,WSW,245,3.0,8.0,-999,-99.99,,,-99.99,,2013-04-22 17:43:00,
2013-04-22 12:52:00,63.0,-99.9,30.19,South,173,4.0,8.0,-999,-99.99,,,-99.99,,2013-04-22 17:52:00,
2013-04-22 13:02:00,62.0,-99.9,30.19,South,188,3.0,8.0,-999,-99.99,,,-99.99,,2013-04-22 18:02:00,
2013-04-22 13:12:00,62.0,-99.9,30.19,South,188,3.0,8.0,-999,-99.99,,,-99.99,,2013-04-22 18:12:00,
2013-04-22 13:22:00,62.0,-99.9,30.18,South,175,2.0,8.0,-999,-99.99,,,-99.99,,2013-04-22 18:22:00,
2013-04-22 13:32:00,66.0,-99.9,30.17,ESE,104,2.0,7.0,-999,-99.99,,,-99.99,,2013-04-22 18:32:00,
2013-04-22 13:42:00,66.0,-99.9,30.17,ESE,104,2.0,7.0,-999,-99.99,,,-99.99,,2013-04-22 18:42:00,
2013-04-22 13:52:00,66.0,-99.9,30.18,SSE,161,2.0,8.0,-999,-99.99,,,-99.99,,2013-04-22 18:52:00,
2013-04-22 14:02:00,65.0,-99.9,30.18,SE,143,3.0,7.0,-999,-99.99,,,-99.99,,2013-04-22 19:02:00,
2013-04-22 14:12:00,65.0,-99.9,30.18,SE,143,3.0,7.0,-999,-99.99,,,-99.99,,2013-04-22 19:12:00,
2013-04-22 14:22:00,67.0,-99.9,30.16,SE,144,3.0,10.0,-999,-99.99,,,-99.99,,2013-04-22 19:22:00,
2013-04-22 14:32:00,68.0,-99.9,30.16,ESE,104,4.0,9.0,-999,-99.99,,,-99.99,,2013-04-22 19:32:00,
2013-04-22 14:42:00,68.0,-99.9,30.16,ESE,104,4.0,9.0,-999,-99.99,,,-99.99,,2013-04-22 19:42:00,
2013-04-22 14:53:00,68.0,-99.9,30.15,SSE,153,1.0,10.0,-999,-99.99,,,-99.99,,2013-04-22 19:53:00,
2013-04-22 15:02:00,68.0,-99.9,30.14,SE,139,3.0,10.0,-999,-99.99,,,-99.99,,2013-04-22 20:02:00,
2013-04-22 15:11:00,68.0,-99.9,30.14,SE,139,3.0,10.0,-999,-99.99,,,-99.99,,2013-04-22 20:11:00,
2013-04-22 15:22:00,66.0,-99.9,30.12,South,172,4.0,10.0,-999,-99.99,,,-99.99,,2013-04-22 20:22:00,
2013-04-22 15:32:00,64.0,-99.9,30.12,SSW,201,5.0,11.0,-999,-99.99,,,-99.99,,2013-04-22 20:32:00,
2013-04-22 15:42:00,64.0,-99.9,30.12,SSW,201,5.0,11.0,-999,-99.99,,,-99.99,,2013-04-22 20:42:00,
2013-04-22 15:52:00,66.0,-99.9,30.11,SSE,164,6.0,10.0,-999,-99.99,,,-99.99,,2013-04-22 20:52:00,
2013-04-22 16:02:00,66.0,-99.9,30.10,SSE,168,6.0,12.0,-999,-99.99,,,-99.99,,2013-04-22 21:02:00,
2013-04-22 16:12:00,68.0,-99.9,30.09,East,88,3.0,9.0,-999,-99.99,,,-99.99,,2013-04-22 21:12:00,
2013-04-22 16:22:00,68.0,-99.9,30.09,East,88,3.0,9.0,-999,-99.99,,,-99.99,,2013-04-22 21:22:00,
2013-04-22 16:33:00,66.0,-99.9,30.09,South,183,7.0,13.0,-999,-99.99,,,-99.99,,2013-04-22 21:33:00,
2013-04-22 16:43:00,66.0,-99.9,30.09,South,183,7.0,13.0,-999,-99.99,,,-99.99,,2013-04-22 21:43:00,
2013-04-22 16:53:00,67.0,-99.9,30.07,SE,138,4.0,10.0,-999,-99.99,,,-99.99,,2013-04-22 21:53:00,
2013-04-22 17:03:00,64.0,-99.9,30.07,WSW,238,5.0,11.0,-999,-99.99,,,-99.99,,2013-04-22 22:03:00,
2013-04-22 17:12:00,64.0,-99.9,30.07,WSW,238,5.0,11.0,-999,-99.99,,,-99.99,,2013-04-22 22:12:00,
2013-04-22 17:22:00,66.0,-99.9,30.07,South,174,4.0,11.0,-999,-99.99,,,-99.99,,2013-04-22 22:22:00,
2013-04-22 17:33:00,68.0,-99.9,30.06,ESE,117,2.0,12.0,-999,-99.99,,,-99.99,,2013-04-22 22:33:00,
2013-04-22 17:42:00,68.0,-99.9,30.06,ESE,117,2.0,12.0,-999,-99.99,,,-99.99,,2013-04-22 22:42:00,
2013-04-22 17:52:00,65.0,-99.9,30.06,SSE,154,5.0,11.0,-999,-99.99,,,-99.99,,2013-04-22 22:52:00,
2013-04-22 18:02:00,65.0,-99.9,30.06,SE,144,5.0,9.0,-999,-99.99,,,-99.99,,2013-04-22 23:02:00,
2013-04-22 18:12:00,64.0,-99.9,30.05,ENE,76,3.0,11.0,-999,-99.99,,,-99.99,,2013-04-22 23:12:00,
2013-04-22 18:22:00,64.0,-99.9,30.05,ENE,76,3.0,11.0,-999,-99.99,,,-99.99,,2013-04-22 23:22:00,
2013-04-22 18:33:00,64.0,-99.9,30.05,SE,145,2.0,11.0,-999,-99.99,,,-99.99,,2013-04-22 23:33:00,
2013-04-22 18:43:00,64.0,-99.9,30.05,SE,145,2.0,11.0,-999,-99.99,,,-99.99,,2013-04-22 23:43:00,
2013-04-22 18:52:00,62.0,-99.9,30.04,SSE,162,5.0,14.0,-999,-99.99,,,-99.99,,2013-04-22 23:52:00,
2013-04-22 19:02:00,61.0,-99.9,30.05,SE,145,3.0,8.0,-999,-99.99,,,-99.99,,2013-04-23 00:02:00,
2013-04-22 19:12:00,61.0,-99.9,30.05,SE,145,3.0,8.0,-999,-99.99,,,-99.99,,2013-04-23 00:12:00,
2013-04-22 19:22:00,60.0,-99.9,30.04,SSE,153,5.0,11.0,-999,-99.99,,,-99.99,,2013-04-23 00:22:00,
2013-04-22 19:32:00,59.0,-99.9,30.05,SSE,156,3.0,9.0,-999,-99.99,,,-99.99,,2013-04-23 00:32:00,
2013-04-22 19:52:00,58.0,-99.9,30.05,SSE,153,0.0,7.0,-999,-99.99,,,-99.99,,2013-04-23 00:52:00,
2013-04-22 20:01:00,58.0,-99.9,30.06,SE,131,0.0,5.0,-999,-99.99,,,-99.99,,2013-04-23 01:01:00,
2013-04-22 20:11:00,56.0,-99.9,30.06,SE,132,0.0,2.0,-999,-99.99,,,-99.99,,2013-04-23 01:11:00,
2013-04-22 20:22:00,56.0,-99.9,30.06,SE,132,0.0,2.0,-999,-99.99,,,-99.99,,2013-04-23 01:22:00,
2013-04-22 20:32:00,56.0,-99.9,30.06,SE,132,0.0,0.0,-999,-99.99,,,-99.99,,2013-04-23 01:32:00,
2013-04-22 20:42:00,56.0,-99.9,30.06,SE,132,0.0,0.0,-999,-99.99,,,-99.99,,2013-04-23 01:42:00,
2013-04-22 20:52:00,55.0,-99.9,30.05,SE,132,0.0,3.0,-999,-99.99,,,-99.99,,2013-04-23 01:52:00,
2013-04-22 21:02:00,55.0,-99.9,30.05,SE,132,1.0,3.0,-999,-99.99,,,-99.99,,2013-04-23 02:02:00,
2013-04-22 21:12:00,55.0,-99.9,30.05,SE,132,1.0,3.0,-999,-99.99,,,-99.99,,2013-04-23 02:12:00,
2013-04-22 21:22:00,54.0,-99.9,30.06,SE,132,0.0,2.0,-999,-99.99,,,-99.99,,2013-04-23 02:22:00,
2013-04-22 21:33:00,54.0,-99.9,30.06,SE,132,0.0,2.0,-999,-99.99,,,-99.99,,2013-04-23 02:33:00,
2013-04-22 21:42:00,54.0,-99.9,30.06,SE,132,0.0,2.0,-999,-99.99,,,-99.99,,2013-04-23 02:42:00,
2013-04-22 21:52:00,54.0,-99.9,30.05,SE,132,0.0,2.0,-999,-99.99,,,-99.99,,2013-04-23 02:52:00,
2013-04-22 22:02:00,53.0,-99.9,30.05,SE,132,0.0,3.0,-999,-99.99,,,-99.99,,2013-04-23 03:02:00,
2013-04-22 22:11:00,53.0,-99.9,30.05,SE,132,0.0,3.0,-999,-99.99,,,-99.99,,2013-04-23 03:11:00,
2013-04-22 22:22:00,53.0,-99.9,30.05,SE,132,0.0,3.0,-999,-99.99,,,-99.99,,2013-04-23 03:22:00,
2013-04-22 22:33:00,53.0,-99.9,30.05,SE,132,0.0,3.0,-999,-99.99,,,-99.99,,2013-04-23 03:33:00,
2013-04-22 22:43:00,53.0,-99.9,30.05,SE,132,0.0,3.0,-999,-99.99,,,-99.99,,2013-04-23 03:43:00,
2013-04-22 22:53:00,52.0,-99.9,30.04,SE,139,1.0,5.0,-999,-99.99,,,-99.99,,2013-04-23 03:53:00,
2013-04-22 23:03:00,52.0,-99.9,30.04,SE,139,0.0,2.0,-999,-99.99,,,-99.99,,2013-04-23 04:03:00,
2013-04-22 23:13:00,52.0,-99.9,30.04,SE,139,0.0,2.0,-999,-99.99,,,-99.99,,2013-04-23 04:13:00,
2013-04-22 23:23:00,52.0,-99.9,30.03,SE,140,0.0,3.0,-999,-99.99,,,-99.99,,2013-04-23 04:23:00,
2013-04-22 23:33:00,52.0,-99.9,30.03,SE,140,0.0,3.0,-999,-99.99,,,-99.99,,2013-04-23 04:33:00,
2013-04-22 23:44:00,52.0,-99.9,30.03,SE,140,0.0,3.0,-999,-99.99,,,-99.99,,2013-04-23 04:44:00,
2013-04-22 23:53:00,52.0,-99.9,30.03,SSE,152,2.0,6.0,-999,-99.99,,,-99.99,,2013-04-23 04:53:00,